Overview Statistics Trail Chart Weather Telemetry Raw packets
 

This is the latest recevied weather packets stored in our database for station/object KE8WMS. If no packets are shown the sender has not sent any weather packets the latest 10 day(s).

<< 75 76 77 78 79 80 81 >>
Time Temp. Humidity Pressure Rain* Wind** Luminosity Snow
1777304444 18.33° C 58% 1016.1 hPa 0 mm - 697 W/m² -
1777304142 17.78° C 59% 1016.2 hPa 0 mm - 702 W/m² -
1777303838 17.78° C 56% 1016.7 hPa 0 mm - 690 W/m² -
1777303536 17.78° C 57% 1016.4 hPa 0 mm - 675 W/m² -
1777303233 17.22° C 60% 1016.5 hPa 0 mm - 642 W/m² -
1777302931 17.78° C 59% 1016.7 hPa 0 mm - 632 W/m² -
1777302627 16.67° C 59% 1016.7 hPa 0 mm - 620 W/m² -
1777302326 17.22° C 63% 1016.8 hPa 0 mm - 561 W/m² -
1777302023 16.67° C 60% 1017 hPa 0 mm - 553 W/m² -
1777301722 16.11° C 65% 1017 hPa 0 mm - 585 W/m² -
1777301418 16.11° C 61% 1016.9 hPa 0 mm - 590 W/m² -
1777301115 16.11° C 61% 1017.2 hPa 0 mm - 566 W/m² -
1777300812 16.11° C 63% 1017.1 hPa 0 mm - 556 W/m² -
1777300510 15° C 65% 1016.9 hPa 0 mm - 524 W/m² -
1777300207 15° C 66% 1016.8 hPa 0 mm - 519 W/m² -
1777299903 15° C 67% 1017.2 hPa 0 mm - 487 W/m² -
1777299601 14.44° C 68% 1016.9 hPa 0 mm - 442 W/m² -
1777299299 13.89° C 69% 1017 hPa 0 mm - 397 W/m² -
1777298995 13.89° C 70% 1016.8 hPa 0 mm - 368 W/m² -
1777298693 13.89° C 73% 1016.9 hPa 0 mm - 397 W/m² -
1777298389 13.33° C 72% 1016.8 hPa 0 mm - 383 W/m² -
1777298085 12.78° C 74% 1017 hPa 0 mm - 370 W/m² -
1777297785 12.78° C 72% 1017.1 hPa 0 mm - 295 W/m² -
1777297484 12.78° C 78% 1017.1 hPa 0 mm - 218 W/m² -
1777297180 12.22° C 74% 1016.9 hPa 0 mm - 178 W/m² -

* Rain latest hour (hover to see other rain measurements)
** Current wind speed in m/s (hover to see current wind gust speed)